User: anonymous
Location: Innerarity Island Observatory
(30.3139°N, 87.4867°W)
Time: 13:55:22
(UTC-05:00)
Language:

OPAL - Orbit

View from above orbital plane
View from above orbital plane
View from above satellite
View from above satellite

Ground track
Ground track

The orbit data is extracted from the following two-line orbital elements,

1 26063U 00004C   14237.67723774  .00000068  00000-0  43182-4 0   415
2 26063 100.2219 036.5377 0036069 322.9395 036.9295 14.36388306763992
Epoch (UTC): 25 August 2014 16:15:13
Eccentricity: 0.0036069
inclination: 100.2219°
perigee height: 744 km
apogee height: 796 km
right ascension of ascending node: 36.5377°
argument of perigee: 322.9395°
revolutions per day: 14.36388306
mean anomaly at epoch: 36.9295°
orbit number at epoch: 76399

The dashed part of the orbit path shows where the satellite is in the earth's shadow,  

DLR